Time,TemperatureF,DewpointF,PressureIn,WindDirection,WindDirectionDegrees,WindSpeedMPH,WindSpeedGustMPH,Humidity,HourlyPrecipIn,Conditions,Clouds,dailyrainin,SolarRadiationWatts/m^2,SoftwareType,DateUTC
2013-02-12 00:11:00,56.0,55.0,-100.00,WSW,244,2.0,10.0,97,0.00,,,0.07,0.000000,,2013-02-12 05:11:00,
2013-02-12 00:21:00,56.0,55.0,-100.00,WSW,244,2.0,10.0,97,0.00,,,0.07,0.000000,,2013-02-12 05:21:00,
2013-02-12 00:32:00,56.0,55.0,-100.00,WSW,244,2.0,10.0,97,0.00,,,0.07,0.000000,,2013-02-12 05:32:00,
2013-02-12 00:42:00,56.0,55.0,-100.00,WSW,244,2.0,10.0,97,0.00,,,0.07,0.000000,,2013-02-12 05:42:00,
2013-02-12 01:12:00,56.0,51.0,-100.00,North,359,3.0,10.0,83,0.00,,,0.06,0.000000,,2013-02-12 06:12:00,
2013-02-12 01:22:00,56.0,51.0,-100.00,North,359,3.0,10.0,83,0.00,,,0.06,0.000000,,2013-02-12 06:22:00,
2013-02-12 01:32:00,56.0,51.0,-100.00,North,359,3.0,10.0,83,0.00,,,0.06,0.000000,,2013-02-12 06:32:00,
2013-02-12 01:42:00,56.0,51.0,-100.00,North,359,3.0,10.0,83,0.00,,,0.06,0.000000,,2013-02-12 06:42:00,
2013-02-12 01:51:00,56.0,51.0,-100.00,North,359,3.0,10.0,83,0.00,,,0.06,0.000000,,2013-02-12 06:51:00,
2013-02-12 02:12:00,55.0,48.0,-100.00,ENE,60,3.0,12.0,77,0.00,,,0.05,0.000000,,2013-02-12 07:12:00,
2013-02-12 02:21:00,55.0,48.0,-100.00,ENE,60,3.0,12.0,77,0.00,,,0.05,0.000000,,2013-02-12 07:21:00,
2013-02-12 02:32:00,55.0,48.0,-100.00,ENE,60,3.0,12.0,77,0.00,,,0.05,0.000000,,2013-02-12 07:32:00,
2013-02-12 02:42:00,55.0,48.0,-100.00,ENE,60,3.0,12.0,77,0.00,,,0.05,0.000000,,2013-02-12 07:42:00,
2013-02-12 02:51:00,55.0,48.0,-100.00,ENE,60,3.0,12.0,77,0.00,,,0.05,0.000000,,2013-02-12 07:51:00,
2013-02-12 02:52:00,52.0,40.0,-100.00,NE,53,3.0,10.0,63,0.00,,,0.05,0.000000,,2013-02-12 07:52:00,
2013-02-12 03:11:00,52.0,40.0,-100.00,NE,53,3.0,10.0,63,0.00,,,0.05,0.000000,,2013-02-12 08:11:00,
2013-02-12 03:22:00,52.0,40.0,-100.00,NE,53,3.0,10.0,63,0.00,,,0.05,0.000000,,2013-02-12 08:22:00,
2013-02-12 03:42:00,52.0,40.0,-100.00,NE,53,3.0,10.0,63,0.00,,,0.05,0.000000,,2013-02-12 08:42:00,
2013-02-12 04:11:00,49.0,37.0,-100.00,NE,49,1.0,9.0,64,0.00,,,0.05,0.000000,,2013-02-12 09:11:00,
2013-02-12 04:22:00,49.0,37.0,-100.00,NE,49,1.0,9.0,64,0.00,,,0.05,0.000000,,2013-02-12 09:22:00,
2013-02-12 04:32:00,49.0,37.0,-100.00,NE,49,1.0,9.0,64,0.00,,,0.05,0.000000,,2013-02-12 09:32:00,
2013-02-12 04:42:00,49.0,37.0,-100.00,NE,49,1.0,9.0,64,0.00,,,0.05,0.000000,,2013-02-12 09:42:00,
2013-02-12 04:51:00,49.0,37.0,-100.00,NE,49,1.0,9.0,64,0.00,,,0.05,0.000000,,2013-02-12 09:51:00,
2013-02-12 05:11:00,47.0,34.0,-100.00,East,86,1.0,10.0,60,0.00,,,0.05,0.000000,,2013-02-12 10:11:00,
2013-02-12 05:22:00,47.0,34.0,-100.00,East,86,1.0,10.0,60,0.00,,,0.05,0.000000,,2013-02-12 10:22:00,
2013-02-12 05:32:00,47.0,34.0,-100.00,East,86,1.0,10.0,60,0.00,,,0.05,0.000000,,2013-02-12 10:32:00,
2013-02-12 05:43:00,47.0,34.0,-100.00,East,86,1.0,10.0,60,0.00,,,0.05,0.000000,,2013-02-12 10:43:00,
2013-02-12 05:51:00,47.0,34.0,-100.00,East,86,1.0,10.0,60,0.00,,,0.05,0.000000,,2013-02-12 10:51:00,
2013-02-12 05:52:00,46.0,33.0,-100.00,ENE,68,2.0,7.0,61,0.00,,,0.05,0.000000,,2013-02-12 10:52:00,
2013-02-12 06:11:00,46.0,33.0,-100.00,ENE,68,2.0,7.0,61,0.00,,,0.05,0.000000,,2013-02-12 11:11:00,
2013-02-12 06:22:00,46.0,33.0,-100.00,ENE,68,2.0,7.0,61,0.00,,,0.05,0.000000,,2013-02-12 11:22:00,
2013-02-12 06:32:00,46.0,33.0,-100.00,ENE,68,2.0,7.0,61,0.00,,,0.05,0.000000,,2013-02-12 11:32:00,
2013-02-12 06:42:00,46.0,33.0,-100.00,ENE,68,2.0,7.0,61,0.00,,,0.05,0.000000,,2013-02-12 11:42:00,
2013-02-12 06:52:00,43.0,30.0,-100.00,East,93,3.0,6.0,59,0.00,,,0.04,0.000000,,2013-02-12 11:52:00,
2013-02-12 07:11:00,43.0,30.0,-100.00,East,93,3.0,6.0,59,0.00,,,0.04,0.000000,,2013-02-12 12:11:00,
2013-02-12 07:22:00,43.0,30.0,-100.00,East,93,3.0,6.0,59,0.00,,,0.04,0.000000,,2013-02-12 12:22:00,
2013-02-12 07:32:00,43.0,30.0,-100.00,East,93,3.0,6.0,59,0.00,,,0.04,0.000000,,2013-02-12 12:32:00,
2013-02-12 07:42:00,43.0,30.0,-100.00,East,93,3.0,6.0,59,0.00,,,0.04,0.000000,,2013-02-12 12:42:00,
2013-02-12 07:52:00,42.0,28.0,-100.00,ENE,70,2.0,6.0,57,0.00,,,0.03,13.000000,,2013-02-12 12:52:00,
2013-02-12 08:11:00,42.0,28.0,-100.00,ENE,70,2.0,6.0,57,0.00,,,0.03,13.000000,,2013-02-12 13:11:00,
2013-02-12 08:22:00,42.0,28.0,-100.00,ENE,70,2.0,6.0,57,0.00,,,0.03,13.000000,,2013-02-12 13:22:00,
2013-02-12 08:32:00,42.0,28.0,-100.00,ENE,70,2.0,6.0,57,0.00,,,0.03,13.000000,,2013-02-12 13:32:00,
2013-02-12 08:42:00,42.0,28.0,-100.00,ENE,70,2.0,6.0,57,0.00,,,0.03,13.000000,,2013-02-12 13:42:00,
2013-02-12 08:52:00,51.0,30.0,-100.00,NNE,20,2.0,8.0,44,0.00,,,0.01,191.000000,,2013-02-12 13:52:00,
2013-02-12 09:12:00,51.0,30.0,-100.00,NNE,20,2.0,8.0,44,0.00,,,0.01,191.000000,,2013-02-12 14:12:00,
2013-02-12 09:22:00,51.0,30.0,-100.00,NNE,20,2.0,8.0,44,0.00,,,0.01,191.000000,,2013-02-12 14:22:00,
2013-02-12 09:32:00,51.0,30.0,-100.00,NNE,20,2.0,8.0,44,0.00,,,0.01,191.000000,,2013-02-12 14:32:00,
2013-02-12 09:42:00,51.0,30.0,-100.00,NNE,20,2.0,8.0,44,0.00,,,0.01,191.000000,,2013-02-12 14:42:00,
2013-02-12 09:52:00,53.0,26.0,-100.00,ENE,77,6.0,13.0,35,0.00,,,0.01,426.000000,,2013-02-12 14:52:00,
2013-02-12 10:11:00,53.0,26.0,-100.00,ENE,77,6.0,13.0,35,0.00,,,0.01,426.000000,,2013-02-12 15:11:00,
2013-02-12 10:21:00,53.0,26.0,-100.00,ENE,77,6.0,13.0,35,0.00,,,0.01,426.000000,,2013-02-12 15:21:00,
2013-02-12 10:32:00,53.0,26.0,-100.00,ENE,77,6.0,13.0,35,0.00,,,0.01,426.000000,,2013-02-12 15:32:00,
2013-02-12 10:42:00,53.0,26.0,-100.00,ENE,77,6.0,13.0,35,0.00,,,0.01,426.000000,,2013-02-12 15:42:00,
2013-02-12 10:52:00,55.0,25.0,-100.00,NE,56,5.0,19.0,31,0.00,,,0.01,624.000000,,2013-02-12 15:52:00,
2013-02-12 11:22:00,55.0,25.0,-100.00,NE,56,5.0,19.0,31,0.00,,,0.01,624.000000,,2013-02-12 16:22:00,
2013-02-12 11:32:00,55.0,25.0,-100.00,NE,56,5.0,19.0,31,0.00,,,0.01,624.000000,,2013-02-12 16:32:00,
2013-02-12 11:42:00,55.0,25.0,-100.00,NE,56,5.0,19.0,31,0.00,,,0.01,624.000000,,2013-02-12 16:42:00,
2013-02-12 11:52:00,56.0,24.0,-100.00,SW,221,4.0,14.0,29,0.00,,,0.01,628.000000,,2013-02-12 16:52:00,
2013-02-12 12:12:00,56.0,24.0,-100.00,SW,221,4.0,14.0,29,0.00,,,0.01,628.000000,,2013-02-12 17:12:00,
2013-02-12 12:21:00,56.0,24.0,-100.00,SW,221,4.0,14.0,29,0.00,,,0.01,628.000000,,2013-02-12 17:21:00,
2013-02-12 12:32:00,56.0,24.0,-100.00,SW,221,4.0,14.0,29,0.00,,,0.01,628.000000,,2013-02-12 17:32:00,
2013-02-12 12:42:00,56.0,24.0,-100.00,SW,221,4.0,14.0,29,0.00,,,0.01,628.000000,,2013-02-12 17:42:00,
2013-02-12 13:12:00,59.0,24.0,-100.00,NE,44,4.0,13.0,26,0.00,,,0.01,755.000000,,2013-02-12 18:12:00,
2013-02-12 13:23:00,59.0,24.0,-100.00,NE,44,4.0,13.0,26,0.00,,,0.01,755.000000,,2013-02-12 18:23:00,
2013-02-12 13:32:00,59.0,24.0,-100.00,NE,44,4.0,13.0,26,0.00,,,0.01,755.000000,,2013-02-12 18:32:00,
2013-02-12 13:42:00,59.0,24.0,-100.00,NE,44,4.0,13.0,26,0.00,,,0.01,755.000000,,2013-02-12 18:42:00,
2013-02-12 13:51:00,59.0,24.0,-100.00,NE,44,4.0,13.0,26,0.00,,,0.01,755.000000,,2013-02-12 18:51:00,
2013-02-12 14:11:00,61.0,25.0,-100.00,East,86,3.0,11.0,25,0.00,,,0.01,773.000000,,2013-02-12 19:11:00,
2013-02-12 14:21:00,61.0,25.0,-100.00,East,86,3.0,11.0,25,0.00,,,0.01,773.000000,,2013-02-12 19:21:00,
2013-02-12 14:32:00,61.0,25.0,-100.00,East,86,3.0,11.0,25,0.00,,,0.01,773.000000,,2013-02-12 19:32:00,
2013-02-12 14:42:00,61.0,25.0,-100.00,East,86,3.0,11.0,25,0.00,,,0.01,773.000000,,2013-02-12 19:42:00,
2013-02-12 14:51:00,61.0,25.0,-100.00,East,86,3.0,11.0,25,0.00,,,0.01,773.000000,,2013-02-12 19:51:00,
2013-02-12 14:52:00,61.0,24.0,-100.00,NNE,21,2.0,11.0,24,0.00,,,0.01,564.000000,,2013-02-12 19:52:00,
2013-02-12 15:11:00,61.0,24.0,-100.00,NNE,21,2.0,11.0,24,0.00,,,0.01,564.000000,,2013-02-12 20:11:00,
2013-02-12 15:22:00,61.0,24.0,-100.00,NNE,21,2.0,11.0,24,0.00,,,0.01,564.000000,,2013-02-12 20:22:00,
2013-02-12 15:32:00,61.0,24.0,-100.00,NNE,21,2.0,11.0,24,0.00,,,0.01,564.000000,,2013-02-12 20:32:00,
2013-02-12 15:41:00,61.0,24.0,-100.00,NNE,21,2.0,11.0,24,0.00,,,0.01,564.000000,,2013-02-12 20:41:00,
2013-02-12 16:21:00,60.0,26.0,-100.00,NE,36,2.0,9.0,27,0.00,,,0.01,256.000000,,2013-02-12 21:21:00,
2013-02-12 16:32:00,60.0,26.0,-100.00,NE,36,2.0,9.0,27,0.00,,,0.01,256.000000,,2013-02-12 21:32:00,
2013-02-12 16:42:00,60.0,26.0,-100.00,NE,36,2.0,9.0,27,0.00,,,0.01,256.000000,,2013-02-12 21:42:00,
2013-02-12 16:51:00,60.0,26.0,-100.00,NE,36,2.0,9.0,27,0.00,,,0.01,256.000000,,2013-02-12 21:51:00,
2013-02-12 16:52:00,57.0,29.0,-100.00,ENE,77,1.0,5.0,34,0.00,,,0.01,109.000000,,2013-02-12 21:52:00,
2013-02-12 17:22:00,57.0,29.0,-100.00,ENE,77,1.0,5.0,34,0.00,,,0.01,109.000000,,2013-02-12 22:22:00,
2013-02-12 17:32:00,57.0,29.0,-100.00,ENE,77,1.0,5.0,34,0.00,,,0.01,109.000000,,2013-02-12 22:32:00,
2013-02-12 17:42:00,57.0,29.0,-100.00,ENE,77,1.0,5.0,34,0.00,,,0.01,109.000000,,2013-02-12 22:42:00,
2013-02-12 17:52:00,52.0,34.0,-100.00,North,4,0.0,13.0,51,0.00,,,0.00,19.000000,,2013-02-12 22:52:00,
2013-02-12 18:12:00,52.0,34.0,-100.00,North,4,0.0,13.0,51,0.00,,,0.00,19.000000,,2013-02-12 23:12:00,
2013-02-12 18:21:00,52.0,34.0,-100.00,North,4,0.0,13.0,51,0.00,,,0.00,19.000000,,2013-02-12 23:21:00,
2013-02-12 18:32:00,52.0,34.0,-100.00,North,4,0.0,13.0,51,0.00,,,0.00,19.000000,,2013-02-12 23:32:00,
2013-02-12 18:42:00,52.0,34.0,-100.00,North,4,0.0,13.0,51,0.00,,,0.00,19.000000,,2013-02-12 23:42:00,
2013-02-12 18:52:00,51.0,32.0,-100.00,West,261,0.0,2.0,48,0.00,,,0.00,0.000000,,2013-02-12 23:52:00,
2013-02-12 19:22:00,51.0,32.0,-100.00,West,261,0.0,2.0,48,0.00,,,0.00,0.000000,,2013-02-13 00:22:00,
2013-02-12 19:32:00,51.0,32.0,-100.00,West,261,0.0,2.0,48,0.00,,,0.00,0.000000,,2013-02-13 00:32:00,
2013-02-12 19:42:00,51.0,32.0,-100.00,West,261,0.0,2.0,48,0.00,,,0.00,0.000000,,2013-02-13 00:42:00,
2013-02-12 19:52:00,49.0,30.0,-100.00,West,270,0.0,2.0,48,0.00,,,0.00,0.000000,,2013-02-13 00:52:00,
2013-02-12 20:42:00,49.0,30.0,-100.00,West,270,0.0,2.0,48,0.00,,,0.00,0.000000,,2013-02-13 01:42:00,
2013-02-12 20:52:00,48.0,31.0,-100.00,NNW,330,0.0,34.0,52,0.00,,,0.00,0.000000,,2013-02-13 01:52:00,
2013-02-12 21:22:00,48.0,31.0,-100.00,NNW,330,0.0,34.0,52,0.00,,,0.00,0.000000,,2013-02-13 02:22:00,
2013-02-12 21:32:00,48.0,31.0,-100.00,NNW,330,0.0,34.0,52,0.00,,,0.00,0.000000,,2013-02-13 02:32:00,
2013-02-12 21:42:00,48.0,31.0,-100.00,NNW,330,0.0,34.0,52,0.00,,,0.00,0.000000,,2013-02-13 02:42:00,
2013-02-12 22:12:00,48.0,32.0,-100.00,East,95,1.0,4.0,54,0.00,,,0.00,0.000000,,2013-02-13 03:12:00,
2013-02-12 22:21:00,48.0,32.0,-100.00,East,95,1.0,4.0,54,0.00,,,0.00,0.000000,,2013-02-13 03:21:00,
2013-02-12 22:32:00,48.0,32.0,-100.00,East,95,1.0,4.0,54,0.00,,,0.00,0.000000,,2013-02-13 03:32:00,
2013-02-12 22:42:00,48.0,32.0,-100.00,East,95,1.0,4.0,54,0.00,,,0.00,0.000000,,2013-02-13 03:42:00,
2013-02-12 22:51:00,48.0,32.0,-100.00,East,95,1.0,4.0,54,0.00,,,0.00,0.000000,,2013-02-13 03:51:00,
2013-02-12 23:11:00,47.0,33.0,-100.00,NW,308,0.0,3.0,57,0.00,,,0.00,0.000000,,2013-02-13 04:11:00,
2013-02-12 23:21:00,47.0,33.0,-100.00,NW,308,0.0,3.0,57,0.00,,,0.00,0.000000,,2013-02-13 04:21:00,
2013-02-12 23:32:00,47.0,33.0,-100.00,NW,308,0.0,3.0,57,0.00,,,0.00,0.000000,,2013-02-13 04:32:00,
2013-02-12 23:42:00,47.0,33.0,-100.00,NW,308,0.0,3.0,57,0.00,,,0.00,0.000000,,2013-02-13 04:42:00,
2013-02-12 23:51:00,47.0,33.0,-100.00,NW,308,0.0,3.0,57,0.00,,,0.00,0.000000,,2013-02-13 04:51:00,
2013-02-12 23:52:00,48.0,32.0,-100.00,WNW,296,0.0,4.0,53,0.00,,,0.00,0.000000,,2013-02-13 04:52:00,